Temp
10 10 10 10 10 10 10 10 10 10 9 9 9 9 9 9 8 8 8 8 8 8 8 8 8 7 7 7 6 6 6 5 5 4 4 4 4 4 3 3 3 3 3 2 2 2 1 1 1 1 0 0 -0 -0 -0 -0 0 0 0 0 0 -0 -1 -2 -2 -2 -1 -1 -1
10 10 10 10 10 10 10 10 9 9 9 9 9 8 8 8 8 8 8 8 8 8 8 7 7 7 6 6 6 5 5 4 4 4 4 4 3 3 3 3 3 2 2 1 1 1 0 0 0 -0 -0 -0 -0 -0 -0 -0 0 0 0 -0 -1 -1 -2 -2 -2 -2 -1 -1 -1
10 10 10 10 10 10 9 9 9 9 9 8 8 8 8 8 8 8 8 8 7 7 7 7 6 6 6 5 5 4 4 4 4 3 3 3 3 3 3 2 2 1 1 0 -0 -0 -0 -0 -0 -0 -0 -0 -0 -0 -0 -0 0 -0 -0 -1 -2 -2 -2 -2 -2 -1 -1 -1 -1
10 10 10 9 9 9 9 9 8 8 8 8 8 8 8 8 8 8 7 7 7 7 6 6 6 5 5 5 4 4 4 3 3 3 3 3 3 2 2 1 1 0 -0 -0 -0 -1 -1 -0 -0 -0 -0 -0 -0 -0 -0 -0 -0 -1 -1 -2 -2 -2 -2 -2 -1 -1 -1 -1 -1
10 9 9 9 9 9 8 8 8 8 8 8 8 8 8 8 7 7 7 7 6 6 6 6 5 5 5 4 4 4 4 3 3 3 3 3 2 2 1 1 0 -0 -0 -0 -1 -0 -0 0 -0 -0 -0 -0 -0 -0 -0 -1 -1 -2 -2 -2 -2 -2 -2 -1 -1 -1 -1 -1 -1
9 9 9 9 8 8 8 8 8 8 8 8 8 8 7 7 7 7 7 6 6 6 5 5 5 5 5 4 4 4 4 4 3 3 3 2 2 2 1 1 0 0 -0 -0 -0 -0 0 -0 -0 -0 -0 -0 -0 -1 -1 -1 -2 -2 -2 -2 -2 -1 -1 -1 -1 -1 -1 -1 -1
9 8 8 8 8 8 8 8 7 7 7 7 7 7 7 7 7 6 6 6 6 5 5 5 5 4 4 4 4 4 4 3 3 3 2 2 2 2 1 1 1 0 0 0 0 -0 -0 -0 -0 -0 -0 -0 -1 -1 -1 -2 -2 -2 -2 -2 -1 -1 -1 -1 -1 -1 -1 -1 -1
8 8 8 8 7 7 7 7 7 7 7 7 7 7 7 6 6 6 6 6 5 5 5 5 4 4 4 4 4 4 4 3 3 3 2 2 2 2 1 1 1 0 0 0 -0 -0 -0 -0 -0 -0 -0 -1 -1 -1 -2 -2 -2 -2 -1 -1 -1 -1 -1 -1 -1 -1 -1 -2 -2
8 7 7 7 7 7 7 7 7 7 7 7 6 6 6 6 6 6 5 5 5 5 5 4 4 4 4 4 4 4 4 4 3 3 2 2 2 1 1 1 0 0 -0 -0 -1 -1 -0 -0 -0 -0 -1 -1 -1 -2 -2 -2 -1 -1 -1 -1 -1 -1 -1 -1 -1 -2 -2 -2 -2
7 7 7 7 7 7 7 6 6 6 6 6 6 6 6 5 5 5 5 5 5 5 4 4 4 4 4 4 4 4 3 3 3 2 2 1 1 1 0 0 -0 -0 -1 -1 -0 -0 -0 -0 -0 -1 -1 -2 -2 -2 -1 -1 -1 -1 -1 -1 -1 -1 -1 -2 -2 -2 -2 -2 -2
7 7 6 6 6 6 6 6 6 6 6 6 6 5 5 5 5 5 4 4 4 4 4 4 4 4 4 4 3 3 3 2 2 1 1 1 0 0 -0 -0 -0 -0 -0 -0 -0 -0 -0 -1 -1 -1 -2 -2 -2 -2 -2 -2 -2 -2 -2 -2 -2 -2 -2 -2 -2 -2 -2 -2 -2
6 6 6 6 6 6 6 6 6 5 5 5 5 5 5 5 4 4 4 4 4 4 4 4 3 3 3 3 2 2 2 2 1 1 1 0 0 0 0 0 0 0 0 -0 -0 -1 -1 -2 -2 -2 -2 -2 -2 -2 -2 -2 -2 -2 -2 -2 -2 -2 -2 -2 -2 -2 -2 -2 -3
6 6 6 6 6 6 5 5 5 5 5 5 5 4 4 4 4 4 4 4 3 3 3 3 3 3 2 2 2 1 1 1 1 1 1 1 0 0 0 0 0 -0 -1 -1 -1 -2 -2 -2 -2 -2 -2 -2 -2 -2 -2 -2 -2 -2 -2 -2 -2 -2 -2 -2 -2 -2 -2 -3 -3
6 6 6 5 5 5 5 5 5 5 5 4 4 4 4 4 4 3 3 3 3 3 3 3 2 2 2 1 1 1 1 1 1 0 0 0 0 0 0 -0 -1 -1 -1 -1 -2 -2 -2 -2 -2 -2 -1 -1 -1 -1 -2 -2 -2 -2 -2 -2 -2 -2 -2 -2 -2 -3 -3 -3 -3
6 5 5 5 5 5 5 5 4 4 4 4 4 4 4 3 3 3 3 3 3 3 2 2 2 2 2 1 1 1 1 0 0 0 0 0 0 -0 -1 -1 -1 -1 -2 -2 -2 -2 -1 -1 -1 -1 -1 -1 -2 -2 -2 -2 -2 -2 -2 -2 -2 -2 -3 -3 -3 -3 -3 -3 -3
5 5 5 5 5 4 4 4 4 4 4 4 3 3 3 3 3 3 2 2 2 2 2 2 2 2 1 1 1 1 0 0 0 0 0 -0 -0 -1 -1 -1 -1 -1 -1 -1 -2 -2 -2 -2 -2 -2 -2 -2 -2 -2 -2 -2 -2 -2 -2 -2 -3 -3 -3 -3 -3 -3 -3 -3 -3
5 5 5 4 4 4 4 4 4 4 3 3 3 3 3 2 2 2 2 2 2 2 1 1 1 1 1 1 1 0 0 -0 -0 -0 -1 -1 -1 -1 -1 -1 -1 -1 -2 -2 -2 -2 -2 -2 -2 -2 -2 -2 -2 -2 -2 -2 -2 -2 -3 -3 -3 -3 -3 -3 -3 -3 -3 -3 -3
5 5 4 4 4 4 4 4 4 3 3 3 3 3 2 2 2 1 1 1 1 1 1 1 1 1 1 0 0 0 -0 -0 -1 -1 -1 -1 -1 -1 -1 -2 -2 -2 -2 -2 -2 -2 -2 -2 -2 -2 -2 -2 -2 -2 -2 -2 -3 -3 -3 -3 -3 -3 -3 -3 -3 -3 -3 -4 -4
4 4 4 4 4 4 4 4 3 3 3 3 2 2 2 2 1 1 1 1 1 1 0 0 0 0 0 0 0 -0 -0 -1 -1 -1 -1 -1 -2 -2 -2 -2 -2 -2 -2 -2 -2 -2 -2 -2 -2 -2 -2 -2 -2 -2 -3 -3 -3 -3 -3 -3 -3 -3 -3 -3 -3 -4 -4 -4 -4
4 4 4 4 4 4 3 3 3 3 3 2 2 2 1 1 1 1 1 1 1 0 0 0 0 0 0 0 -0 -0 -0 -1 -1 -1 -1 -2 -2 -2 -2 -2 -2 -2 -2 -2 -2 -2 -2 -2 -2 -2 -2 -2 -3 -3 -3 -3 -3 -3 -3 -3 -3 -3 -3 -4 -4 -4 -4 -4 -4
4 4 4 4 4 3 3 3 3 3 2 2 2 1 1 1 1 1 1 1 0 0 0 0 0 0 0 -0 -0 -0 -0 -1 -1 -1 -1 -2 -2 -2 -2 -2 -2 -2 -2 -2 -2 -2 -2 -3 -3 -3 -3 -3 -3 -3 -3 -3 -3 -3 -3 -3 -4 -4 -4 -4 -4 -4 -4 -4 -4
4 4 4 4 3 3 3 3 2 2 2 2 1 1 1 0 0 0 0 0 0 0 0 0 -0 -0 -0 -1 -1 -1 -1 -1 -1 -1 -1 -2 -2 -2 -2 -2 -2 -2 -2 -2 -2 -3 -3 -3 -3 -3 -3 -3 -3 -3 -3 -3 -3 -4 -4 -4 -4 -4 -4 -4 -4 -4 -4 -4 -4
4 4 4 3 3 3 3 2 2 2 1 1 1 1 1 1 1 0 0 0 -0 -0 -0 -0 -0 -1 -1 -1 -1 -1 -1 -1 -1 -1 -2 -2 -2 -2 -2 -2 -2 -2 -2 -2 -3 -3 -3 -3 -3 -3 -3 -3 -3 -3 -3 -4 -4 -4 -4 -4 -4 -4 -4 -4 -4 -4 -4 -4 -5
4 3 3 3 3 3 3 2 2 1 1 1 1 1 1 1 0 0 0 -0 -0 -0 -0 -0 -0 -1 -1 -1 -1 -1 -1 -1 -2 -2 -2 -2 -2 -2 -2 -2 -2 -2 -3 -3 -3 -3 -3 -3 -3 -3 -3 -3 -3 -4 -4 -4 -4 -4 -4 -4 -4 -4 -4 -4 -4 -4 -5 -5 -5
3 3 3 3 3 3 2 2 1 1 1 1 1 1 0 0 0 -0 -0 0 0 0 0 -0 -1 -1 -1 -1 -1 -1 -1 -2 -2 -2 -2 -2 -2 -2 -2 -2 -2 -3 -3 -3 -3 -3 -3 -3 -3 -3 -3 -4 -4 -4 -4 -4 -4 -4 -4 -4 -4 -5 -5 -5 -5 -5 -5 -5 -5
3 3 3 3 3 2 2 1 1 1 1 1 1 0 0 -0 -0 -0 0 0 0 0 -0 -0 -1 -1 -1 -1 -1 -1 -2 -2 -2 -2 -2 -2 -2 -2 -2 -3 -3 -3 -3 -3 -3 -3 -3 -3 -3 -4 -4 -4 -4 -4 -4 -4 -4 -4 -5 -5 -5 -5 -5 -5 -5 -5 -5 -5 -5
3 3 3 3 2 2 2 1 1 1 1 1 1 0 0 -0 -0 0 0 0 0 -0 -0 -1 -1 -1 -1 -1 -2 -2 -2 -2 -2 -2 -2 -2 -2 -3 -3 -3 -3 -3 -3 -3 -3 -3 -3 -3 -4 -4 -4 -4 -4 -4 -4 -4 -5 -5 -5 -5 -5 -5 -5 -5 -5 -5 -5 -6 -6
3 2 2 2 2 2 1 1 1 1 1 1 0 0 0 -0 -0 -0 -0 -0 -1 -1 -1 -1 -1 -1 -2 -2 -2 -2 -2 -2 -2 -2 -2 -3 -3 -3 -3 -3 -3 -3 -3 -3 -3 -3 -4 -4 -4 -4 -4 -4 -4 -4 -5 -5 -5 -5 -5 -5 -5 -5 -5 -6 -6 -6 -6 -6 -6
2 2 2 2 1 1 1 1 0 0 0 0 0 0 -0 -0 -0 -1 -1 -1 -1 -1 -1 -2 -2 -2 -2 -2 -2 -2 -2 -2 -2 -3 -3 -3 -3 -3 -3 -3 -3 -3 -3 -3 -3 -4 -4 -4 -4 -4 -4 -4 -5 -5 -5 -5 -5 -5 -5 -5 -5 -6 -6 -6 -6 -6 -6 -6 -6
2 1 1 1 1 1 0 0 0 -0 0 0 0 -0 -0 -1 -1 -1 -1 -1 -1 -1 -2 -2 -2 -2 -2 -2 -2 -2 -2 -3 -3 -3 -3 -3 -3 -4 -4 -3 -3 -3 -3 -3 -4 -4 -4 -4 -4 -4 -4 -5 -5 -5 -5 -5 -5 -5 -5 -6 -6 -6 -6 -6 -6 -6 -7 -7 -7
1 1 1 1 0 0 -0 -0 -0 -0 -0 -0 -0 -1 -1 -1 -1 -1 -1 -1 -1 -2 -2 -2 -2 -2 -2 -2 -3 -3 -3 -3 -3 -3 -3 -4 -4 -3 -3 -3 -3 -3 -3 -3 -4 -4 -4 -4 -4 -4 -5 -5 -5 -5 -5 -5 -5 -6 -6 -6 -6 -6 -6 -6 -7 -7 -7 -7 -7
1 1 0 0 0 -0 -0 -1 -1 -1 -1 -1 -1 -1 -1 -1 -2 -2 -2 -2 -2 -2 -2 -2 -2 -2 -3 -3 -3 -3 -3 -4 -4 -4 -4 -3 -3 -3 -3 -3 -3 -3 -3 -4 -4 -4 -4 -4 -4 -5 -5 -5 -5 -5 -5 -6 -6 -6 -6 -6 -6 -7 -7 -7 -7 -7 -7 -7 -7
0 0 -0 -0 -0 -1 -1 -1 -1 -1 -1 -1 -2 -2 -2 -2 -2 -2 -2 -2 -2 -2 -3 -3 -3 -3 -3 -3 -3 -4 -4 -4 -4 -4 -4 -3 -3 -3 -3 -3 -3 -4 -4 -4 -4 -4 -4 -5 -5 -5 -5 -5 -6 -6 -6 -6 -6 -6 -6 -7 -7 -7 -7 -7 -7 -7 -7 -7 -8
-0 -0 -1 -1 -1 -1 -1 -1 -1 -1 -1 -2 -2 -2 -2 -2 -3 -3 -3 -3 -3 -3 -3 -3 -3 -3 -4 -4 -4 -4 -4 -4 -4 -4 -4 -4 -3 -3 -3 -3 -4 -4 -4 -4 -4 -5 -5 -5 -5 -5 -6 -6 -6 -6 -6 -6 -6 -7 -7 -7 -7 -7 -7 -7 -7 -7 -8 -8 -8
-0 -1 -1 -1 -1 -1 -1 -1 -2 -2 -2 -2 -2 -3 -3 -3 -3 -3 -3 -3 -3 -3 -3 -3 -4 -4 -4 -4 -4 -4 -4 -4 -4 -4 -4 -4 -4 -4 -4 -4 -4 -4 -4 -5 -5 -5 -5 -5 -6 -6 -6 -6 -6 -6 -7 -7 -7 -7 -7 -7 -7 -7 -7 -7 -8 -8 -8 -8 -8
-1 -1 -1 -2 -2 -2 -2 -2 -2 -3 -3 -3 -3 -3 -3 -3 -3 -3 -3 -3 -3 -3 -4 -4 -4 -4 -4 -4 -4 -4 -4 -4 -4 -4 -4 -4 -4 -4 -4 -4 -4 -5 -5 -5 -5 -5 -6 -6 -6 -6 -6 -7 -7 -7 -7 -7 -7 -7 -7 -7 -7 -8 -8 -8 -8 -8 -8 -9 -9
-1 -2 -2 -3 -3 -3 -3 -3 -3 -3 -3 -3 -3 -3 -3 -3 -3 -3 -3 -4 -4 -4 -4 -4 -4 -4 -4 -4 -4 -4 -4 -4 -4 -4 -4 -4 -4 -4 -4 -4 -5 -5 -5 -5 -6 -6 -6 -6 -6 -7 -7 -7 -7 -7 -7 -7 -7 -7 -8 -8 -8 -8 -8 -8 -9 -9 -9 -9 -9
-2 -3 -3 -3 -3 -3 -3 -3 -3 -3 -3 -3 -3 -3 -3 -3 -4 -4 -4 -4 -4 -4 -4 -4 -4 -4 -4 -4 -4 -4 -4 -4 -4 -4 -4 -4 -4 -5 -5 -5 -5 -5 -6 -6 -6 -6 -7 -7 -7 -7 -7 -7 -7 -7 -8 -8 -8 -8 -8 -9 -9 -9 -9 -9 -9 -9 -9 -9 -9
-3 -3 -3 -3 -3 -3 -3 -3 -3 -3 -3 -3 -3 -3 -4 -4 -4 -4 -4 -4 -4 -4 -4 -4 -4 -4 -4 -4 -4 -4 -4 -4 -4 -5 -5 -5 -5 -5 -5 -5 -6 -6 -6 -6 -7 -7 -7 -7 -7 -7 -7 -8 -8 -8 -8 -8 -8 -9 -9 -10 -10 -10 -10 -10 -10 -9 -9 -9 -9
-3 -3 -3 -3 -3 -3 -3 -3 -3 -3 -4 -4 -4 -4 -4 -4 -5 -5 -5 -5 -5 -5 -5 -5 -5 -5 -4 -4 -4 -4 -5 -5 -5 -5 -5 -5 -5 -6 -6 -6 -6 -6 -7 -7 -7 -7 -7 -7 -7 -8 -8 -8 -8 -8 -8 -9 -9 -9 -10 -10 -10 -10 -10 -10 -10 -10 -9 -9 -9
-3 -3 -3 -3 -3 -3 -3 -4 -4 -4 -4 -4 -4 -5 -5 -5 -5 -5 -5 -5 -5 -5 -5 -5 -5 -5 -5 -5 -5 -5 -5 -5 -5 -5 -5 -6 -6 -6 -6 -6 -7 -7 -7 -7 -7 -7 -7 -8 -8 -8 -8 -8 -8 -9 -9 -9 -10 -10 -10 -10 -10 -10 -10 -10 -10 -10 -10 -9 -9
Height
1494 1492 1491 1490 1488 1487 1486 1484 1483 1482 1480 1479 1477 1476 1475 1473 1472 1471 1469 1468 1467 1465 1463 1462 1461 1461 1460 1460 1460 1460 1460 1461 1462 1463 1463 1464 1464 1464 1464 1463 1463 1463 1462 1462 1462 1462 1462 1462 1463 1463 1464 1464 1464 1465 1465 1465 1466 1466 1466 1466 1466 1466 1466 1467 1468 1469 1470 1470 1470
1491 1490 1489 1487 1486 1484 1483 1482 1481 1479 1478 1477 1475 1474 1473 1472 1470 1469 1467 1466 1465 1463 1462 1461 1460 1459 1459 1459 1459 1459 1459 1460 1460 1461 1461 1461 1461 1461 1461 1460 1460 1459 1459 1459 1460 1460 1461 1461 1461 1462 1462 1462 1463 1463 1464 1464 1464 1464 1464 1464 1464 1464 1465 1466 1467 1467 1468 1468 1469
1489 1487 1486 1485 1483 1482 1481 1479 1478 1477 1476 1475 1474 1472 1471 1470 1469 1467 1466 1465 1463 1462 1461 1460 1459 1458 1458 1458 1458 1458 1458 1458 1459 1458 1458 1458 1458 1457 1457 1457 1457 1457 1458 1458 1459 1459 1459 1459 1460 1460 1461 1461 1462 1462 1462 1463 1463 1462 1462 1462 1462 1463 1463 1464 1465 1466 1467 1467 1467
1486 1485 1483 1482 1481 1480 1479 1477 1476 1475 1474 1473 1472 1471 1470 1468 1467 1466 1464 1463 1462 1461 1460 1460 1459 1458 1458 1457 1457 1457 1457 1457 1457 1456 1456 1456 1455 1455 1455 1455 1456 1456 1457 1457 1457 1457 1457 1458 1459 1459 1460 1460 1461 1462 1462 1461 1461 1461 1460 1460 1461 1461 1462 1463 1464 1465 1465 1465 1465
1484 1482 1481 1480 1479 1477 1477 1475 1474 1473 1472 1471 1470 1469 1468 1467 1466 1464 1463 1462 1462 1461 1460 1460 1459 1458 1457 1457 1457 1457 1456 1456 1456 1455 1455 1455 1454 1454 1455 1455 1456 1456 1456 1456 1456 1457 1457 1458 1458 1459 1460 1460 1460 1460 1460 1459 1459 1458 1458 1459 1460 1461 1462 1463 1463 1464 1463 1463 1463
1482 1480 1479 1478 1477 1476 1474 1473 1472 1471 1470 1469 1468 1467 1466 1465 1464 1463 1462 1462 1461 1461 1460 1459 1458 1457 1456 1456 1456 1455 1455 1455 1455 1454 1454 1454 1454 1454 1454 1455 1455 1455 1455 1455 1456 1457 1457 1457 1458 1458 1459 1459 1458 1457 1457 1457 1457 1457 1457 1458 1460 1461 1462 1462 1462 1462 1462 1461 1461
1480 1478 1477 1476 1475 1474 1472 1472 1471 1470 1468 1467 1467 1466 1465 1464 1463 1462 1462 1461 1461 1460 1459 1458 1457 1456 1455 1455 1454 1454 1454 1454 1454 1454 1455 1455 1455 1455 1455 1455 1455 1455 1455 1455 1456 1456 1456 1457 1457 1457 1457 1456 1456 1455 1455 1456 1456 1457 1458 1459 1460 1460 1461 1460 1460 1460 1460 1459 1459
1478 1477 1475 1474 1473 1472 1471 1470 1469 1468 1467 1466 1465 1464 1463 1463 1462 1461 1461 1460 1460 1459 1459 1458 1457 1456 1455 1454 1454 1454 1454 1454 1455 1455 1456 1456 1456 1455 1455 1455 1455 1455 1455 1455 1455 1455 1455 1455 1455 1455 1454 1454 1454 1454 1455 1456 1457 1457 1458 1458 1459 1459 1459 1459 1458 1458 1458 1457 1457
1476 1475 1474 1473 1472 1471 1470 1469 1468 1467 1466 1465 1464 1463 1462 1462 1461 1460 1460 1459 1459 1459 1459 1458 1457 1456 1455 1455 1454 1454 1454 1454 1454 1454 1455 1455 1455 1455 1454 1454 1454 1453 1454 1454 1454 1454 1454 1454 1454 1453 1453 1453 1454 1455 1456 1457 1457 1457 1457 1457 1457 1457 1457 1457 1457 1456 1456 1456 1455
1475 1474 1473 1472 1471 1470 1469 1468 1467 1466 1465 1464 1463 1462 1461 1461 1460 1460 1459 1459 1458 1458 1458 1458 1457 1456 1455 1455 1454 1454 1453 1453 1453 1453 1454 1454 1453 1453 1452 1452 1452 1452 1453 1453 1453 1453 1453 1453 1453 1453 1453 1454 1455 1455 1456 1456 1456 1456 1456 1456 1455 1455 1455 1455 1455 1454 1454 1453 1453
1474 1473 1472 1471 1470 1469 1468 1467 1466 1465 1464 1463 1462 1461 1461 1460 1459 1459 1458 1458 1458 1458 1458 1458 1457 1456 1455 1455 1454 1454 1453 1453 1452 1452 1453 1452 1452 1452 1452 1452 1452 1452 1452 1453 1453 1452 1452 1452 1452 1453 1453 1454 1454 1454 1454 1454 1454 1454 1454 1454 1454 1453 1453 1453 1452 1452 1452 1452 1451
1473 1472 1471 1470 1469 1468 1467 1466 1465 1464 1463 1462 1462 1461 1460 1460 1459 1458 1458 1458 1457 1457 1457 1457 1457 1456 1455 1455 1454 1454 1453 1453 1452 1452 1452 1451 1451 1452 1452 1452 1452 1452 1452 1452 1452 1452 1452 1452 1452 1452 1452 1452 1453 1453 1453 1453 1453 1452 1452 1452 1452 1451 1451 1451 1451 1450 1450 1449 1449
1472 1471 1470 1469 1468 1467 1466 1465 1464 1463 1463 1462 1461 1461 1460 1459 1459 1458 1458 1457 1457 1457 1456 1456 1456 1456 1455 1455 1454 1453 1453 1453 1452 1452 1452 1451 1451 1451 1451 1451 1451 1451 1451 1451 1451 1451 1451 1451 1451 1451 1451 1451 1451 1452 1452 1451 1451 1451 1451 1450 1450 1449 1449 1449 1448 1448 1448 1447 1447
1471 1470 1469 1468 1467 1466 1465 1464 1463 1463 1462 1462 1461 1461 1460 1459 1458 1457 1457 1457 1456 1456 1455 1455 1455 1454 1454 1454 1453 1453 1453 1452 1452 1451 1451 1450 1450 1450 1450 1449 1450 1450 1450 1450 1450 1451 1451 1451 1451 1451 1450 1450 1450 1450 1450 1450 1449 1449 1448 1448 1448 1447 1447 1447 1446 1446 1445 1445 1444
1470 1469 1468 1467 1466 1465 1464 1463 1462 1462 1462 1461 1461 1460 1460 1459 1458 1457 1457 1456 1455 1455 1454 1454 1453 1453 1453 1453 1452 1452 1452 1451 1451 1450 1450 1449 1449 1449 1448 1449 1449 1449 1450 1450 1450 1450 1450 1450 1450 1449 1449 1449 1449 1448 1448 1448 1447 1447 1446 1446 1445 1445 1444 1444 1444 1443 1443 1442 1442
1469 1468 1467 1466 1465 1464 1463 1462 1462 1461 1461 1460 1460 1460 1459 1458 1458 1457 1456 1455 1454 1453 1453 1452 1452 1452 1452 1452 1451 1451 1451 1450 1450 1449 1449 1448 1448 1448 1448 1448 1448 1449 1449 1449 1449 1449 1449 1448 1448 1448 1447 1447 1447 1446 1446 1446 1445 1445 1444 1443 1443 1442 1442 1442 1441 1441 1440 1440 1439
1468 1467 1466 1465 1464 1463 1462 1462 1461 1460 1460 1459 1459 1459 1458 1458 1457 1456 1455 1454 1453 1452 1452 1451 1451 1450 1450 1450 1450 1450 1449 1449 1448 1448 1448 1447 1447 1447 1447 1447 1447 1447 1447 1447 1447 1447 1447 1447 1447 1446 1446 1445 1445 1444 1444 1443 1443 1442 1442 1441 1441 1440 1440 1439 1439 1438 1438 1437 1437
1467 1466 1464 1463 1463 1462 1461 1461 1460 1459 1458 1458 1458 1457 1457 1457 1456 1455 1454 1454 1452 1451 1450 1450 1449 1449 1448 1448 1448 1448 1448 1448 1447 1447 1447 1447 1446 1446 1446 1446 1446 1446 1446 1446 1446 1446 1446 1445 1445 1445 1444 1443 1443 1442 1442 1441 1441 1440 1439 1439 1438 1438 1437 1437 1436 1436 1435 1435 1434
1466 1464 1463 1462 1462 1461 1460 1459 1459 1458 1457 1457 1457 1456 1456 1456 1455 1454 1453 1452 1451 1450 1449 1448 1448 1447 1447 1447 1447 1447 1447 1447 1446 1446 1445 1445 1445 1445 1445 1445 1445 1445 1445 1445 1444 1444 1444 1443 1443 1442 1442 1441 1441 1440 1439 1439 1438 1438 1437 1437 1436 1435 1435 1434 1434 1433 1433 1432 1432
1464 1463 1462 1461 1461 1460 1459 1458 1457 1457 1456 1456 1455 1455 1454 1454 1454 1453 1452 1451 1450 1449 1448 1447 1447 1447 1447 1447 1447 1447 1446 1445 1445 1444 1444 1444 1444 1444 1444 1443 1443 1443 1443 1443 1442 1442 1442 1442 1441 1441 1440 1439 1438 1438 1437 1437 1436 1435 1435 1434 1433 1433 1432 1432 1431 1431 1430 1430 1429
1462 1462 1461 1460 1459 1458 1457 1457 1456 1456 1455 1454 1454 1453 1453 1452 1452 1452 1451 1450 1449 1448 1447 1447 1446 1446 1446 1446 1446 1445 1444 1444 1443 1443 1443 1442 1442 1442 1442 1442 1442 1442 1441 1441 1441 1440 1440 1439 1439 1438 1438 1437 1436 1435 1435 1434 1433 1433 1432 1432 1431 1430 1430 1429 1429 1428 1428 1427 1427
1461 1460 1459 1458 1457 1457 1456 1455 1455 1454 1453 1453 1452 1452 1452 1451 1451 1450 1450 1449 1448 1448 1447 1446 1446 1445 1445 1444 1444 1443 1443 1442 1442 1442 1441 1441 1441 1441 1441 1440 1440 1440 1439 1439 1439 1438 1438 1437 1437 1436 1435 1435 1434 1433 1432 1432 1431 1430 1429 1429 1428 1428 1427 1427 1426 1426 1425 1424 1424
1459 1459 1458 1457 1456 1455 1455 1454 1453 1452 1452 1451 1451 1450 1450 1450 1449 1449 1449 1448 1447 1447 1446 1445 1444 1443 1443 1442 1442 1442 1441 1441 1440 1440 1440 1439 1439 1439 1439 1439 1438 1438 1438 1437 1437 1436 1436 1435 1434 1434 1433 1432 1431 1431 1430 1429 1428 1428 1427 1426 1426 1425 1425 1424 1423 1423 1422 1422 1421
1458 1457 1457 1456 1455 1454 1453 1453 1452 1451 1450 1450 1449 1449 1449 1448 1448 1448 1447 1447 1446 1445 1444 1443 1442 1442 1441 1441 1441 1440 1439 1439 1438 1438 1438 1438 1437 1437 1437 1437 1437 1436 1436 1435 1435 1434 1433 1433 1432 1431 1430 1430 1429 1428 1427 1427 1426 1425 1424 1423 1423 1422 1422 1421 1421 1420 1419 1418 1418
1457 1456 1456 1455 1454 1453 1452 1451 1450 1450 1449 1448 1448 1448 1447 1447 1447 1446 1446 1445 1444 1443 1442 1442 1441 1440 1440 1440 1439 1438 1438 1437 1437 1437 1436 1436 1436 1436 1436 1435 1435 1434 1434 1433 1433 1432 1431 1431 1430 1429 1428 1427 1426 1425 1425 1424 1423 1422 1422 1421 1420 1419 1418 1418 1417 1417 1416 1416 1415
1456 1455 1454 1454 1453 1452 1451 1450 1449 1448 1448 1447 1447 1447 1446 1446 1445 1445 1444 1443 1442 1442 1441 1440 1440 1439 1439 1438 1437 1437 1436 1436 1435 1435 1435 1434 1434 1434 1434 1433 1433 1432 1432 1431 1431 1430 1429 1428 1427 1427 1426 1424 1423 1422 1422 1421 1421 1420 1419 1418 1417 1417 1416 1415 1414 1414 1413 1412 1412
1454 1454 1453 1452 1452 1450 1449 1448 1447 1447 1446 1446 1445 1445 1445 1444 1444 1443 1442 1442 1441 1440 1440 1439 1438 1438 1437 1437 1436 1435 1435 1434 1434 1433 1433 1433 1432 1432 1432 1431 1431 1430 1430 1429 1428 1427 1427 1426 1425 1424 1423 1422 1421 1420 1419 1418 1417 1417 1416 1416 1415 1414 1413 1412 1411 1411 1410 1409 1409
1453 1452 1452 1451 1450 1449 1447 1446 1446 1445 1445 1444 1444 1443 1443 1443 1442 1442 1441 1441 1440 1439 1439 1438 1437 1437 1436 1435 1434 1434 1433 1433 1432 1432 1432 1431 1431 1430 1430 1429 1428 1428 1427 1427 1426 1425 1424 1423 1422 1422 1421 1420 1418 1417 1417 1416 1415 1414 1413 1413 1412 1411 1410 1409 1408 1408 1407 1406 1405
1452 1451 1450 1450 1448 1447 1446 1445 1444 1444 1443 1443 1442 1442 1442 1441 1441 1440 1440 1439 1439 1438 1437 1437 1436 1435 1434 1434 1433 1432 1432 1432 1432 1431 1430 1429 1429 1428 1427 1427 1427 1426 1425 1425 1424 1423 1422 1421 1420 1419 1418 1417 1416 1415 1414 1413 1412 1412 1411 1410 1409 1409 1408 1407 1406 1405 1404 1403 1402
1450 1450 1449 1448 1447 1446 1445 1444 1443 1443 1442 1442 1441 1441 1440 1440 1440 1439 1438 1438 1437 1437 1436 1435 1434 1434 1433 1432 1432 1432 1431 1430 1430 1429 1428 1427 1427 1426 1426 1425 1424 1424 1423 1422 1421 1420 1419 1418 1417 1417 1416 1415 1413 1412 1412 1411 1410 1409 1408 1407 1407 1406 1405 1404 1403 1402 1401 1400 1399
1449 1448 1447 1447 1446 1445 1444 1443 1443 1442 1442 1441 1440 1439 1439 1439 1438 1437 1437 1437 1436 1435 1435 1434 1433 1433 1432 1432 1431 1430 1429 1429 1428 1427 1427 1426 1425 1424 1424 1423 1422 1422 1421 1420 1419 1418 1417 1416 1415 1414 1413 1412 1411 1410 1409 1408 1408 1407 1406 1405 1404 1403 1402 1402 1400 1399 1398 1397 1396
1448 1447 1446 1445 1444 1444 1443 1443 1442 1441 1440 1439 1439 1438 1437 1437 1437 1436 1436 1435 1435 1434 1434 1433 1432 1432 1431 1430 1429 1428 1428 1427 1427 1426 1425 1424 1423 1422 1422 1421 1420 1419 1418 1417 1417 1416 1415 1414 1413 1412 1411 1410 1409 1408 1407 1406 1405 1404 1403 1402 1402 1401 1400 1399 1397 1396 1395 1394 1393
1446 1445 1445 1444 1443 1442 1442 1441 1441 1440 1439 1438 1437 1437 1436 1436 1435 1435 1434 1434 1433 1433 1432 1432 1431 1430 1429 1429 1428 1427 1427 1426 1425 1425 1424 1422 1422 1421 1420 1419 1418 1417 1416 1415 1414 1413 1412 1412 1411 1410 1409 1408 1407 1406 1405 1404 1403 1402 1401 1400 1399 1398 1397 1396 1394 1393 1392 1391 1390
1445 1444 1443 1442 1442 1441 1440 1439 1439 1438 1437 1436 1436 1435 1435 1434 1434 1433 1433 1433 1432 1432 1431 1431 1430 1429 1428 1427 1427 1426 1425 1425 1424 1423 1422 1421 1420 1419 1418 1417 1416 1415 1414 1413 1412 1411 1410 1409 1408 1407 1407 1406 1405 1403 1402 1401 1400 1399 1398 1397 1396 1395 1393 1392 1391 1390 1389 1388 1388
1443 1442 1442 1441 1440 1439 1438 1438 1437 1436 1436 1435 1434 1434 1433 1433 1433 1432 1432 1432 1431 1431 1430 1429 1428 1427 1427 1426 1425 1425 1424 1423 1422 1421 1420 1419 1418 1417 1416 1415 1414 1413 1412 1411 1410 1409 1408 1407 1406 1405 1404 1403 1402 1401 1400 1399 1397 1396 1395 1394 1392 1391 1390 1389 1388 1387 1387 1386 1386
1442 1442 1441 1440 1439 1438 1437 1437 1436 1435 1435 1434 1434 1433 1433 1432 1432 1432 1431 1431 1430 1429 1428 1428 1427 1426 1426 1425 1424 1423 1422 1421 1420 1419 1418 1417 1416 1415 1414 1413 1412 1411 1410 1409 1408 1407 1406 1405 1404 1403 1402 1401 1400 1399 1397 1396 1395 1393 1392 1390 1389 1388 1387 1386 1385 1385 1384 1384 1383
1442 1441 1440 1439 1439 1438 1437 1436 1436 1435 1434 1434 1433 1433 1432 1432 1431 1431 1430 1429 1428 1428 1427 1427 1426 1425 1424 1424 1423 1422 1421 1419 1418 1417 1416 1415 1414 1413 1412 1411 1410 1409 1408 1407 1406 1405 1404 1403 1402 1401 1400 1399 1397 1396 1395 1393 1392 1390 1389 1387 1386 1385 1384 1384 1383 1383 1382 1382 1382
1441 1441 1440 1439 1438 1438 1437 1436 1436 1435 1434 1433 1433 1432 1432 1431 1430 1429 1429 1428 1427 1427 1426 1425 1425 1424 1423 1422 1421 1420 1419 1417 1416 1415 1414 1413 1412 1411 1410 1409 1408 1407 1406 1405 1404 1403 1402 1401 1400 1399 1398 1397 1395 1393 1392 1391 1389 1387 1386 1385 1383 1382 1382 1382 1381 1381 1381 1381 1380
1441 1440 1440 1439 1439 1438 1437 1436 1436 1435 1434 1433 1432 1432 1431 1430 1429 1428 1428 1427 1426 1425 1425 1424 1423 1422 1421 1420 1419 1418 1417 1416 1415 1413 1412 1411 1410 1409 1408 1407 1406 1405 1404 1403 1402 1401 1400 1399 1398 1397 1396 1394 1393 1391 1390 1388 1387 1385 1384 1383 1382 1381 1380 1380 1380 1380 1379 1378 1377
1441 1440 1440 1439 1438 1437 1437 1436 1435 1434 1433 1432 1431 1430 1430 1429 1428 1427 1427 1426 1425 1424 1423 1422 1422 1421 1419 1418 1417 1416 1415 1414 1413 1412 1411 1410 1408 1407 1406 1405 1404 1403 1402 1402 1400 1399 1398 1397 1396 1395 1394 1392 1391 1389 1388 1386 1385 1383 1382 1381 1380 1379 1378 1378 1378 1377 1377 1375 1375
1440 1440 1439 1438 1437 1436 1435 1434 1434 1433 1432 1431 1430 1429 1428 1428 1427 1427 1426 1425 1424 1423 1422 1421 1420 1419 1418 1417 1415 1414 1413 1412 1412 1410 1409 1408 1407 1406 1405 1403 1402 1402 1401 1400 1398 1397 1396 1395 1394 1393 1392 1390 1389 1387 1386 1385 1383 1382 1381 1380 1379 1378 1377 1376 1375 1375 1374 1373 1372
Wind_Speed
28 30 33 35 36 37 37 38 38 37 36 35 34 33 32 31 30 30 30 30 31 32 32 31 29 28 27 26 26 25 24 23 23 24 26 27 28 28 28 28 30 31 31 31 31 30 29 27 25 23 22 21 20 19 19 20 21 23 26 26 24 19 14 12 14 16 19 21 22
31 33 35 36 37 37 37 36 35 34 32 32 31 30 29 28 28 28 28 28 29 29 29 28 25 23 21 20 20 20 19 20 22 24 26 28 29 30 29 30 31 31 30 28 27 25 23 23 21 20 19 19 20 20 20 22 24 26 26 22 17 13 11 13 15 18 20 22 23
34 35 36 36 36 35 34 33 32 31 30 29 29 28 27 26 26 26 26 26 27 26 25 22 19 17 16 16 16 17 19 21 24 26 29 31 32 32 32 31 30 28 25 22 20 19 19 19 20 21 21 20 20 21 23 25 26 25 21 15 11 10 12 15 18 20 22 23 24
35 35 34 34 33 32 31 30 29 29 28 28 28 27 26 25 25 25 25 25 24 22 19 17 15 14 14 15 16 18 21 23 26 28 31 32 33 32 30 28 26 23 20 19 18 17 18 20 21 21 21 20 21 23 26 26 23 19 14 12 11 12 15 17 20 22 23 24 25
33 33 32 31 30 29 29 28 28 28 28 27 27 26 25 24 24 24 23 22 20 18 16 14 13 13 14 16 18 21 23 26 28 30 31 32 32 30 27 24 21 20 20 18 18 18 20 21 21 21 20 22 25 27 26 22 18 15 13 13 13 15 18 20 22 23 24 25 25
31 31 30 29 28 28 27 27 27 27 27 27 27 25 24 22 22 21 20 19 17 16 14 13 13 15 17 19 21 24 26 28 29 30 30 30 29 28 27 25 23 22 21 20 20 21 22 21 21 21 23 26 27 25 22 18 16 14 14 15 16 18 20 22 23 24 24 25 25
29 29 28 28 27 27 27 27 27 27 27 26 25 23 21 20 19 18 17 17 15 14 13 13 15 17 19 21 24 26 27 28 29 28 27 26 26 27 27 26 26 25 25 25 24 24 23 22 22 25 27 27 25 22 19 16 15 15 16 17 19 20 22 23 23 24 24 25 25
28 28 27 27 27 27 27 26 26 26 26 25 23 21 19 18 17 16 15 15 14 13 13 14 16 18 21 22 24 25 26 27 27 26 25 25 26 27 27 27 27 28 28 28 26 25 24 24 26 28 28 25 21 18 16 15 15 16 18 19 21 22 23 24 24 25 25 26 26
28 27 27 26 26 26 26 26 26 25 24 23 20 18 16 15 15 14 14 14 14 13 12 14 16 19 21 23 24 25 25 26 26 26 25 25 25 26 27 28 28 28 28 26 25 25 25 27 28 27 23 19 16 15 14 15 16 18 20 21 23 24 25 25 25 26 26 27 28
28 27 26 26 26 26 26 26 25 24 22 20 17 15 13 13 13 13 13 13 14 14 14 15 17 20 22 23 24 25 25 24 24 24 23 22 23 24 25 26 26 25 24 24 25 26 27 26 23 20 16 14 14 14 16 17 18 20 21 23 24 25 26 27 27 27 28 28 28
28 27 26 25 25 25 25 25 23 21 19 17 15 13 11 11 11 11 12 12 12 13 14 15 18 20 22 23 23 23 23 22 21 20 19 20 21 22 23 23 24 24 25 26 26 24 22 18 15 13 12 13 15 16 17 19 20 22 23 25 26 27 27 28 28 28 28 29 29
28 27 26 26 25 25 24 23 21 19 16 14 12 11 11 11 11 11 11 11 13 15 16 17 19 20 21 21 21 21 20 20 19 20 20 20 21 22 23 25 26 26 25 23 20 16 13 11 11 12 14 15 17 18 19 21 22 24 25 26 27 28 28 28 28 28 29 29 30
27 27 26 26 25 24 22 21 19 17 15 13 11 10 11 12 12 12 13 13 14 15 17 18 19 19 18 18 18 18 18 18 19 20 21 22 23 25 25 25 23 20 17 14 11 10 10 11 13 15 16 18 19 20 21 23 24 25 26 27 28 28 28 29 29 29 29 30 30
27 26 26 25 24 22 21 18 16 15 14 13 12 11 12 12 13 14 14 14 15 16 18 19 19 19 18 17 17 17 17 18 19 20 22 23 24 24 22 18 14 11 10 9 10 11 13 14 16 17 18 20 21 22 23 24 25 26 27 27 28 28 28 28 29 29 30 30 31
26 26 25 24 23 21 19 17 15 14 13 13 12 12 13 13 14 15 16 16 17 18 19 20 20 20 20 19 19 19 19 20 21 23 24 23 22 19 15 11 9 9 10 11 12 14 15 16 18 19 21 22 23 24 25 25 26 26 27 27 28 28 28 29 29 30 30 31 31
25 25 24 23 21 20 18 16 15 14 13 13 13 14 14 15 16 17 17 18 18 19 19 20 20 20 21 21 21 20 20 21 22 22 20 18 14 11 9 9 9 11 12 14 15 16 17 18 20 21 23 24 25 25 26 26 26 27 27 27 28 28 29 29 30 30 31 31 31
25 24 23 21 20 19 17 16 15 14 14 14 14 15 15 16 17 18 18 18 19 19 19 19 19 20 20 21 21 21 21 21 20 18 14 11 9 9 10 11 12 13 14 15 16 17 19 20 21 23 24 25 26 26 27 27 27 27 27 28 28 29 29 30 30 31 31 31 32
24 23 22 20 19 19 18 17 15 15 15 15 16 16 17 17 18 18 18 18 18 18 17 18 19 20 20 21 21 21 21 20 18 14 11 10 10 11 13 14 14 15 16 16 17 19 20 21 22 24 25 26 26 27 27 27 27 28 28 29 29 30 30 30 31 31 31 32 32
23 21 20 19 19 18 18 17 17 16 16 17 17 17 17 18 18 18 18 18 17 17 17 17 18 20 21 22 22 21 20 18 15 12 11 11 13 14 15 16 16 17 17 18 19 20 21 22 23 24 26 26 27 27 27 27 28 28 29 29 30 30 30 31 31 31 32 32 33
22 20 20 19 19 19 18 18 18 18 17 17 18 19 20 20 20 19 19 19 18 18 18 19 20 21 22 22 21 19 17 15 13 12 12 14 15 17 18 18 18 19 19 20 21 21 22 23 24 25 26 27 27 27 28 28 28 29 29 30 30 31 31 31 32 32 33 33 33
21 20 19 19 20 19 19 19 19 18 18 18 19 20 21 20 19 19 19 19 19 19 20 21 23 24 23 22 19 16 14 14 14 14 15 16 18 19 19 20 20 21 21 21 22 22 23 23 24 25 26 27 27 28 28 29 29 30 30 31 31 31 32 32 33 33 33 34 34
21 20 20 20 19 19 18 18 18 18 19 21 22 21 20 19 19 19 19 19 19 20 21 23 24 23 21 19 17 15 15 15 15 16 17 18 19 20 21 21 21 22 22 22 22 22 23 24 25 26 26 27 28 28 29 29 30 30 31 31 32 32 33 33 33 34 34 34 35
20 20 20 20 19 19 18 18 18 20 21 22 22 21 20 20 19 19 19 20 21 23 24 23 21 19 18 17 17 17 17 17 17 17 19 20 20 21 21 22 22 22 22 22 22 23 23 24 25 26 27 28 28 29 29 30 30 31 31 32 32 33 33 34 34 34 35 35 36
19 19 19 19 19 19 19 19 20 21 22 23 22 21 20 20 20 20 22 23 24 24 22 19 17 16 17 18 18 18 18 18 18 18 19 20 21 22 22 22 22 22 22 22 22 23 24 25 26 27 27 28 29 29 29 30 30 31 31 32 33 33 34 34 35 35 36 36 36
19 19 20 20 20 20 20 21 22 23 23 22 21 20 20 21 22 23 24 24 23 20 18 15 15 15 16 17 18 18 18 18 19 19 20 21 22 23 23 23 23 22 22 22 22 23 24 25 26 27 28 28 29 30 30 30 31 31 32 32 33 34 35 35 36 36 36 37 37
20 21 22 22 23 23 23 24 24 23 22 21 21 21 21 22 23 23 23 21 19 16 14 14 14 14 15 16 17 17 18 19 20 21 22 23 24 24 23 23 23 22 22 21 22 23 24 25 27 27 28 29 30 30 31 31 31 32 32 33 34 34 35 36 36 37 37 37 37
22 23 24 24 25 25 26 26 25 24 23 22 22 22 22 22 22 20 19 17 15 14 13 13 13 13 14 16 17 18 19 20 21 22 22 23 23 23 23 23 22 21 21 22 23 24 26 27 28 28 29 30 30 31 31 32 32 33 33 34 34 35 35 36 36 37 37 37 37
23 24 24 25 25 26 26 26 25 24 23 22 21 21 20 19 18 17 15 14 13 13 13 13 13 14 15 17 19 20 21 21 22 22 22 22 22 22 22 21 21 21 22 23 25 26 27 28 29 29 30 30 31 31 32 32 33 33 34 34 34 35 35 36 36 37 37 37 38
23 24 24 24 25 25 25 25 24 22 21 20 19 18 17 16 15 14 14 13 13 13 13 14 15 16 18 19 20 21 22 22 21 21 22 22 22 21 21 21 21 22 24 25 27 28 29 29 30 30 30 31 31 32 32 32 33 33 34 34 35 35 36 36 37 37 38 38 39
23 23 23 24 24 24 24 22 21 19 17 16 15 15 15 15 15 15 15 15 15 15 15 16 17 18 19 20 21 21 21 21 21 21 21 21 20 20 21 22 23 25 26 27 28 29 30 30 30 30 30 31 31 32 32 33 33 34 34 35 35 36 36 37 37 38 39 39 40
22 23 23 23 23 22 21 19 17 16 15 14 14 15 15 15 16 16 16 17 17 17 17 18 18 19 19 20 20 20 20 21 21 20 20 20 20 21 23 24 26 27 28 29 30 30 30 31 31 31 31 31 32 32 33 33 34 34 35 35 36 36 37 37 38 39 40 41 41
21 21 22 22 21 20 18 17 16 15 14 14 14 14 15 15 15 16 16 17 17 18 18 18 18 19 19 19 20 20 20 20 20 20 20 21 23 24 25 27 28 29 29 30 30 30 31 31 31 31 31 31 32 32 33 34 34 35 35 36 37 37 38 39 40 40 41 41 41
18 19 19 19 18 18 17 17 17 16 15 14 13 13 13 13 13 13 14 15 15 16 17 18 18 19 20 20 20 20 20 20 20 21 23 24 25 26 27 28 29 29 29 30 30 30 30 31 31 31 31 31 32 32 33 34 35 35 36 37 38 39 39 40 41 41 41 40 38
16 17 17 17 17 17 17 17 16 15 14 12 11 10 10 10 10 11 12 14 15 16 18 19 20 20 20 20 20 20 20 21 22 24 25 26 27 28 28 29 29 29 29 29 30 30 30 30 30 31 31 31 32 33 34 34 35 37 38 39 39 40 41 41 41 40 38 36 33
14 15 15 15 15 14 14 13 12 11 10 9 8 8 9 9 11 12 14 15 17 18 19 20 20 20 19 20 20 21 22 23 24 26 26 27 28 28 28 29 29 29 29 29 30 30 30 30 30 30 31 31 32 33 34 35 37 38 39 40 40 41 40 40 38 36 33 30 27
13 12 11 10 9 9 8 8 7 7 7 7 8 9 10 12 13 15 16 18 19 20 20 20 20 20 20 21 22 23 24 25 26 27 27 28 28 28 28 29 29 29 29 29 29 29 29 29 30 30 31 32 33 34 35 37 38 39 39 39 39 39 38 37 34 31 28 24 22
11 10 8 7 6 6 6 7 8 9 10 11 12 14 15 16 17 18 19 20 20 20 20 20 20 21 22 23 24 25 26 26 27 27 27 28 28 28 28 28 28 28 28 28 28 28 29 29 30 30 31 33 34 35 36 37 38 38 37 37 36 36 34 32 29 25 23 21 21
11 9 8 7 8 9 10 11 13 14 16 17 18 19 20 21 21 21 21 20 20 20 21 21 22 22 23 24 25 25 26 26 27 27 27 27 27 28 28 28 28 28 28 28 28 28 29 29 30 31 32 33 35 36 36 36 36 35 34 33 32 32 30 27 24 21 20 21 22
9 9 9 10 12 14 15 17 18 20 21 21 22 23 23 23 22 21 20 20 20 20 21 22 22 23 24 25 25 26 26 26 26 26 26 26 27 27 27 27 27 27 27 27 28 28 29 30 31 32 33 34 35 35 34 33 31 30 29 28 28 28 26 24 21 20 21 23 25
10 11 13 15 17 19 20 21 22 23 23 24 24 24 23 22 21 20 19 19 20 21 21 22 23 24 24 25 25 25 25 26 26 26 26 26 26 26 26 26 26 27 27 27 28 29 30 31 32 33 33 33 33 31 29 28 26 25 25 25 25 25 24 23 22 22 24 26 28
14 16 18 20 22 23 23 24 24 24 24 23 22 22 21 20 19 19 19 20 20 21 22 23 24 24 25 25 25 25 25 25 25 25 25 25 25 25 26 26 26 27 27 28 29 30 31 31 32 33 32 31 29 27 24 23 22 22 22 23 23 23 23 23 24 25 26 28 29
Wind_Direction
301 304 306 308 310 312 314 314 314 315 316 317 317 317 316 316 315 315 315 315 313 310 305 300 293 285 277 269 262 256 250 241 229 218 210 205 203 202 203 206 209 211 213 215 216 217 218 219 222 226 230 236 243 250 257 263 271 280 288 294 295 295 291 286 285 286 287 289 290
305 307 309 311 313 314 315 316 316 317 318 319 319 318 318 317 318 318 319 318 316 313 307 301 292 282 271 261 252 243 232 221 210 203 199 198 200 201 203 206 208 210 211 213 214 217 220 222 227 233 240 246 250 256 265 273 283 292 297 299 298 296 292 289 288 289 290 290 290
310 311 313 314 315 316 317 317 318 319 320 320 319 319 318 319 320 321 322 321 319 314 308 301 289 275 260 247 235 223 212 203 198 196 196 198 200 202 203 205 206 206 208 211 216 221 226 231 235 241 247 255 259 267 277 287 294 299 303 304 305 302 297 294 292 290 290 289 289
313 315 316 317 318 319 319 320 320 321 321 321 320 319 319 320 322 323 324 322 319 314 307 297 282 263 245 230 217 207 200 196 196 197 199 201 201 201 201 202 203 205 208 214 221 227 234 240 244 248 254 262 272 283 291 298 303 308 313 316 314 307 300 294 291 289 287 287 287
318 320 321 321 321 321 321 322 322 322 322 321 320 318 318 320 322 323 323 321 317 310 301 289 269 248 232 220 211 204 201 200 202 203 204 204 203 202 202 202 206 210 215 221 230 237 243 247 251 256 265 276 287 296 302 309 316 322 324 320 312 303 296 291 287 286 285 286 286
323 324 324 324 324 323 323 323 322 322 321 320 318 316 317 319 321 322 321 318 312 303 291 274 253 236 225 218 212 209 207 207 207 207 207 206 206 207 209 212 216 221 226 232 240 246 249 252 258 269 282 293 301 308 315 322 327 326 320 310 302 295 290 287 285 285 285 286 287
327 327 327 326 325 324 323 322 322 321 319 317 315 314 315 318 320 320 317 312 305 293 277 258 241 229 221 217 214 212 211 210 210 210 210 211 214 216 219 223 227 232 237 241 246 250 253 259 272 287 298 305 311 317 322 325 324 316 307 299 293 289 287 286 286 287 288 289 290
331 331 329 327 325 323 322 321 320 318 316 313 311 311 313 316 319 318 313 307 299 284 265 249 236 227 223 220 218 216 215 215 216 216 218 221 224 226 229 233 236 240 244 248 252 256 262 272 286 297 305 311 316 320 322 319 310 302 296 292 290 288 288 288 289 290 291 292 293
334 332 329 327 324 322 320 318 316 314 311 309 309 309 311 314 316 314 309 302 294 280 260 245 236 232 229 226 225 223 222 222 221 222 224 228 231 234 236 239 243 246 251 256 262 269 277 286 294 301 308 314 318 317 311 304 298 293 291 289 289 289 289 290 291 292 293 294 294
334 331 328 325 322 319 317 314 312 309 307 305 306 306 308 310 310 306 301 297 288 278 263 246 241 238 234 231 229 227 224 223 224 226 228 232 236 240 243 246 251 257 265 273 279 284 288 293 300 307 313 313 308 302 298 295 292 290 289 288 288 289 290 291 292 293 294 294 294
333 330 326 322 318 315 312 309 307 304 302 301 301 301 302 304 302 299 294 290 281 274 265 253 247 243 239 235 233 229 227 226 227 231 235 239 244 249 255 262 269 276 282 286 289 291 295 301 309 313 308 301 297 295 293 291 290 289 288 288 288 289 290 290 291 292 293 293 293
331 327 323 318 315 311 308 305 303 300 298 296 296 295 295 297 296 295 290 282 281 280 273 260 252 247 242 238 235 234 235 238 242 246 250 255 261 267 274 280 284 287 289 291 294 300 307 312 309 303 299 296 294 293 291 290 289 288 287 287 287 288 289 290 290 291 292 292 292
329 324 319 314 311 308 305 302 299 296 294 292 290 289 291 293 294 294 290 282 277 272 266 259 253 248 245 244 244 247 252 257 262 265 268 272 277 282 287 290 292 294 296 301 305 308 306 301 297 295 295 294 292 291 290 288 287 287 287 287 287 287 288 289 290 291 291 292 292
326 321 315 311 307 304 302 299 296 293 291 288 287 287 289 291 293 293 290 283 273 264 258 255 251 250 252 256 259 264 269 274 279 282 284 286 289 292 294 297 301 304 306 305 301 296 292 290 291 291 291 291 289 288 288 287 287 287 287 287 287 287 288 289 290 291 292 293 293
322 317 311 307 304 301 298 296 292 289 287 286 286 288 289 290 292 292 289 282 274 266 260 255 253 255 259 264 269 274 279 285 289 292 294 296 297 299 301 304 303 298 294 291 288 287 287 287 288 288 288 288 288 288 288 288 288 287 287 287 288 288 290 291 292 293 294 294 295
319 313 308 304 300 298 296 293 290 287 286 285 286 288 290 290 291 291 288 282 276 269 263 260 259 261 264 268 272 278 285 292 297 299 301 302 304 305 305 300 293 289 286 286 285 285 284 285 286 286 287 288 288 288 289 289 288 288 288 288 289 290 292 293 294 294 295 295 295
316 310 305 300 298 295 293 290 288 286 286 286 288 289 291 292 292 290 287 282 276 271 266 265 265 266 269 271 275 281 288 295 300 302 304 305 305 301 296 291 288 286 284 283 282 282 282 284 285 287 288 288 288 288 288 288 288 289 289 290 291 292 293 294 294 295 295 295 294
313 307 301 297 295 293 291 288 287 286 287 289 291 292 293 294 292 289 286 281 274 270 267 267 267 267 269 273 278 285 292 297 299 300 299 298 295 292 288 285 282 281 280 279 279 280 283 285 287 288 288 288 288 288 288 288 289 290 290 291 292 293 294 294 294 294 294 294 293
309 303 298 295 292 291 289 287 286 287 289 290 291 291 291 292 288 284 278 272 269 265 262 262 263 266 271 277 284 292 297 299 298 294 290 287 285 283 281 280 278 277 277 278 280 283 286 288 289 289 288 288 288 288 289 290 291 291 292 293 293 293 294 294 294 293 293 293 292
305 299 294 292 290 289 287 286 286 287 288 289 288 287 287 287 283 277 269 264 262 260 258 259 264 272 279 286 292 297 299 297 291 284 278 275 275 275 276 276 276 276 277 280 283 288 291 292 291 289 289 289 290 291 291 292 292 293 293 293 293 293 293 293 293 292 292 291 291
301 295 292 290 289 287 284 284 285 286 286 286 286 287 287 284 280 274 268 264 261 260 263 268 276 284 290 294 296 296 293 289 282 276 271 269 269 271 273 275 276 277 279 283 289 293 294 293 292 290 290 291 292 292 293 293 293 293 293 292 292 292 292 291 291 291 290 290 290
298 292 288 287 285 284 282 283 284 284 284 285 287 287 286 281 277 273 269 267 267 270 275 280 286 289 292 292 290 287 283 279 274 270 268 268 268 270 272 274 275 278 282 288 294 296 295 293 291 290 291 292 293 293 293 293 293 292 292 291 291 291 290 290 290 290 290 290 290
295 289 286 285 284 283 282 282 283 284 285 287 290 290 287 283 277 273 271 272 275 279 281 283 285 286 285 284 281 278 275 271 268 266 267 268 270 272 272 274 276 281 288 294 296 295 293 291 291 291 292 293 293 293 293 292 292 292 291 291 291 290 290 290 290 289 289 289 290
293 288 285 284 283 283 282 282 283 285 288 290 290 289 286 281 276 274 275 277 279 280 280 279 279 278 278 276 274 272 268 265 264 265 267 270 272 272 273 275 281 288 295 297 296 293 291 290 291 292 293 293 293 292 292 291 291 291 291 291 291 291 291 290 290 290 290 290 290
293 289 286 284 283 282 282 283 286 288 290 291 288 283 279 275 274 275 278 279 278 277 275 274 273 273 273 271 269 266 264 263 264 266 268 270 271 272 275 281 290 296 299 297 293 290 289 290 291 292 293 293 292 292 292 291 291 291 292 292 292 292 292 291 291 291 291 291 292
295 292 290 288 285 284 284 286 288 290 289 286 282 278 274 273 275 276 277 277 275 273 272 273 273 272 269 267 265 263 263 264 265 267 269 270 270 274 281 291 298 299 297 292 289 288 289 290 292 292 293 293 292 292 292 292 292 292 292 293 293 293 293 293 293 293 293 293 293
297 295 293 290 287 285 286 288 289 288 286 283 280 277 276 275 275 275 274 273 273 274 275 275 274 271 267 265 264 264 265 266 267 268 268 270 275 283 293 299 299 296 292 289 288 289 290 291 292 292 293 292 292 292 293 293 293 293 294 294 294 294 295 295 295 295 295 295 294
298 295 292 289 287 286 287 288 288 287 285 282 280 279 277 275 274 272 271 272 274 276 277 277 274 270 267 265 265 266 266 267 268 271 275 282 291 297 300 299 295 291 289 289 290 291 292 292 293 293 293 293 293 293 294 294 294 295 295 295 295 296 296 296 296 296 296 296 296
295 292 290 288 287 287 288 289 288 287 285 282 280 277 275 272 270 270 270 272 274 275 275 273 270 267 265 265 266 266 268 271 277 285 293 300 302 301 297 293 290 289 289 291 292 292 293 293 293 293 293 293 294 294 295 295 296 296 296 296 296 297 297 297 296 296 296 296 296
294 292 290 289 289 290 292 293 292 289 286 281 277 274 272 270 270 270 270 271 272 272 270 269 267 266 266 266 268 271 277 286 295 301 303 302 298 294 291 289 290 290 292 293 293 293 293 293 293 294 294 294 295 295 296 297 297 297 297 297 297 297 297 297 297 296 296 296 296
295 292 291 291 293 295 297 297 295 291 286 280 276 273 272 272 272 273 274 274 274 272 271 270 269 269 270 273 279 287 295 301 303 301 296 293 291 290 290 290 291 292 293 293 293 293 293 293 293 294 295 295 296 297 297 298 298 298 298 298 298 298 297 297 297 296 296 296 297
294 292 292 293 295 297 297 295 292 288 284 279 276 274 274 275 277 278 279 279 279 278 277 276 276 279 284 291 297 302 302 299 295 291 289 289 289 290 291 292 293 294 294 294 293 293 293 294 295 295 296 297 298 298 299 299 299 299 299 298 298 298 297 297 297 296 296 297 297
291 291 292 293 293 292 290 286 284 282 279 276 274 273 274 277 280 283 284 285 286 286 286 288 291 296 301 303 303 299 294 290 287 287 289 290 291 293 293 294 294 294 294 294 294 294 294 295 296 297 298 299 299 299 300 300 300 299 299 298 298 297 297 297 297 297 297 297 298
285 287 288 289 287 284 280 278 276 275 273 270 267 267 270 275 281 285 288 291 293 295 299 302 305 306 305 301 295 290 287 287 288 290 291 293 294 294 295 295 295 295 295 295 295 295 296 297 298 299 300 300 300 300 300 300 300 299 299 298 298 297 297 297 297 297 298 299 299
284 287 288 286 282 278 275 273 271 269 267 265 265 268 271 277 282 288 292 296 300 303 307 308 308 304 298 292 288 287 288 290 291 293 294 295 295 296 296 296 296 296 296 296 296 297 298 299 300 301 301 301 301 301 301 301 300 300 299 299 298 298 297 297 298 298 299 300 300
290 291 292 290 285 279 276 276 275 277 279 283 287 290 290 290 293 296 299 302 306 308 308 306 301 295 290 287 287 289 291 293 294 295 296 296 297 297 297 297 296 296 297 297 298 299 300 301 302 302 302 302 302 302 302 301 301 301 300 299 299 298 298 298 299 300 301 301 299
292 292 293 296 294 293 295 299 300 303 305 306 306 306 306 306 307 308 309 310 310 308 304 299 294 290 288 288 290 292 294 295 296 297 297 297 297 297 297 297 297 297 298 299 300 301 302 302 302 303 303 303 303 303 303 303 302 301 301 300 299 298 299 300 301 303 303 300 295
290 290 293 299 304 306 309 311 313 313 313 314 314 315 316 316 317 317 315 313 308 302 297 293 290 289 290 291 293 294 296 297 298 298 298 298 298 298 298 298 298 299 300 301 302 302 302 303 303 303 304 305 305 305 304 304 303 301 300 299 299 299 299 300 302 303 300 294 289
293 298 303 308 312 314 315 317 317 318 319 320 321 322 322 322 321 319 314 308 302 296 293 292 292 293 294 295 296 297 298 298 298 298 298 298 298 298 298 299 299 300 301 302 303 303 303 303 304 305 306 306 306 306 305 304 302 301 300 299 299 299 299 299 299 296 292 287 285
304 309 313 316 318 320 321 323 324 325 325 326 327 326 325 323 319 313 307 301 297 295 295 295 296 297 297 298 298 299 298 298 298 298 298 298 298 298 299 300 301 301 302 303 303 303 304 304 305 306 307 308 307 306 304 302 300 299 299 299 300 300 299 297 294 289 287 285 285
312 316 319 322 325 327 329 331 331 332 332 331 330 327 323 318 312 306 302 299 298 298 298 298 299 299 299 300 299 299 299 298 298 298 298 298 298 299 300 301 302 303 303 303 304 304 305 306 307 308 309 308 307 304 302 300 299 298 299 300 301 301 300 298 295 292 291 291 292